Date String (YYYY-MM-DD hh:mm:ss) UTC,Instrument flags,Ambient pressure (hPa),Sample flow (lpm),Bypass flow (lpm),Sample temperature (°C),Ambient temperature (°C),ASC tube jacket temperature (°C),LED temperature (°C),Box temperature (°C),Sample RH (%),Span deviation,Mass concentration (μg/m³),Mass concentration (μg/m³),Mass concentration (μg/m³)
DateTimeUTC,F1_M11,P_M11,Q1_M11,Q2_M11,T1_M11,T2_M11,T3_M11,T4_M11,T5_M11,U1_M11,ZSPAN_M11,X0_M11,X2_M11,X1_M11
2021-10-19 16:00:00,,0820.6,5.00,0.00,29.0,28.1,00.0,37.9,30.8,15.1,0000.0,0016.54,0004.40,0002.68
2021-10-19 16:01:00,,0820.6,4.99,0.00,29.0,28.1,00.0,37.9,30.8,15.0,0000.0,0016.01,0004.43,0002.71
2021-10-19 16:02:00,,0820.7,5.00,0.00,29.0,28.1,00.0,38.0,30.8,15.1,0000.0,0015.45,0004.37,0002.73
2021-10-19 16:03:00,,0820.6,5.00,0.00,29.0,28.1,00.0,38.0,30.8,15.0,0000.0,0015.40,0004.35,0002.75
2021-10-19 16:04:00,,0820.6,5.00,0.00,29.0,28.1,00.0,38.0,30.8,15.0,0000.0,0015.90,0004.34,0002.75
2021-10-19 16:05:00,,0820.6,5.00,0.00,29.0,28.1,00.0,38.0,30.8,15.1,0000.0,0015.67,0004.38,0002.77
2021-10-19 16:06:00,,0820.6,4.99,0.00,29.0,28.1,00.0,38.0,30.8,15.2,0000.0,0015.55,0004.40,0002.78
2021-10-19 16:07:00,,0820.6,5.00,0.00,29.0,28.1,00.0,38.0,30.8,15.3,0000.0,0016.14,0004.41,0002.79
2021-10-19 16:08:00,,0820.6,5.01,0.00,29.0,28.1,00.0,38.0,30.8,15.2,0000.0,0015.17,0004.41,0002.79
2021-10-19 16:09:00,,0820.6,5.00,0.00,29.0,28.1,00.0,38.0,30.8,15.1,0000.0,0015.05,0004.38,0002.81
2021-10-19 16:10:00,,0820.7,5.00,0.00,29.0,28.2,00.0,38.0,30.8,14.9,0000.0,0013.94,0004.36,0002.81
2021-10-19 16:11:00,,0820.7,5.00,0.00,29.0,28.2,00.0,38.0,30.8,14.9,0000.0,0014.52,0004.40,0002.82
2021-10-19 16:12:00,,0820.7,4.99,0.00,29.0,28.2,00.0,38.1,30.8,15.0,0000.0,0015.78,0004.44,0002.81
2021-10-19 16:13:00,,0820.8,4.99,0.00,29.0,28.2,00.0,38.1,30.8,15.1,0000.0,0015.48,0004.42,0002.82
2021-10-19 16:14:00,,0820.8,5.01,0.00,29.0,28.2,00.0,38.1,30.8,15.1,0000.0,0014.98,0004.37,0002.82
2021-10-19 16:15:00,,0820.8,5.01,0.00,29.0,28.2,00.0,38.1,30.8,15.1,0000.0,0014.40,0004.39,0002.83
2021-10-19 16:16:00,,0820.9,4.99,0.00,29.1,28.2,00.0,38.1,30.9,15.1,0000.0,0014.50,0004.35,0002.83
2021-10-19 16:17:00,,0820.9,5.01,0.00,29.0,28.2,00.0,38.1,30.8,15.0,0000.0,0014.91,0004.35,0002.83
2021-10-19 16:18:00,,0820.9,4.99,0.00,29.0,28.2,00.0,38.1,30.8,15.1,0000.0,0014.36,0004.32,0002.84
2021-10-19 16:19:00,,0821.0,5.00,0.00,29.0,28.2,00.0,38.1,30.8,15.2,0000.0,0014.27,0004.36,0002.85
2021-10-19 16:20:00,,0820.9,5.00,0.00,29.0,28.1,00.0,38.1,30.8,15.2,0000.0,0014.65,0004.41,0002.86
2021-10-19 16:21:00,,0820.9,5.00,0.00,29.0,28.1,00.0,38.1,30.8,15.3,0000.0,0015.68,0004.42,0002.87
2021-10-19 16:22:00,,0821.0,5.00,0.00,29.0,28.1,00.0,38.1,30.8,15.2,0000.0,0016.14,0004.43,0002.89
2021-10-19 16:23:00,,0821.0,4.99,0.00,29.0,28.1,00.0,38.1,30.8,15.2,0000.0,0015.59,0004.40,0002.91
2021-10-19 16:24:00,,0821.0,5.01,0.00,29.0,28.1,00.0,38.1,30.8,15.2,0000.0,0016.27,0004.47,0002.94
2021-10-19 16:25:00,,0821.0,4.99,0.00,29.0,28.1,00.0,38.1,30.8,15.3,0000.0,0016.79,0004.52,0002.94
2021-10-19 16:26:00,,0821.0,5.01,0.00,29.0,28.1,00.0,38.1,30.7,15.3,0000.0,0017.79,0004.59,0002.97
2021-10-19 16:27:00,,0821.0,5.00,0.00,29.0,28.1,00.0,38.1,30.7,15.4,0000.0,0018.16,0004.61,0002.98
2021-10-19 16:28:00,,0821.1,5.01,0.00,29.0,28.1,00.0,38.1,30.7,15.3,0000.0,0018.22,0004.65,0002.99
2021-10-19 16:29:00,,0821.1,5.01,0.00,29.0,28.1,00.0,38.1,30.7,15.4,0000.0,0019.80,0004.68,0003.00
2021-10-19 16:30:00,,0821.1,4.99,0.00,29.0,28.1,00.0,38.1,30.7,15.4,0000.0,0020.32,0004.70,0003.02
2021-10-19 16:31:00,,0821.2,5.00,0.00,29.0,28.1,00.0,38.1,30.7,15.4,0000.0,0021.48,0004.68,0003.02
2021-10-19 16:32:00,,0821.2,5.00,0.00,29.0,28.1,00.0,38.1,30.7,15.5,0000.0,0021.29,0004.72,0003.02
2021-10-19 16:33:00,,0821.1,5.00,0.00,29.0,28.1,00.0,38.1,30.7,15.5,0000.0,0020.61,0004.70,0003.00
2021-10-19 16:34:00,,0821.1,5.01,0.00,28.9,28.1,00.0,38.1,30.7,15.4,0000.0,0020.10,0004.73,0002.99
2021-10-19 16:35:00,,0821.1,5.00,0.00,28.9,28.1,00.0,38.1,30.7,15.4,0000.0,0019.44,0004.74,0002.97
2021-10-19 16:36:00,,0821.1,4.98,0.00,28.9,28.1,00.0,38.1,30.7,15.5,0000.0,0019.30,0004.74,0002.96
2021-10-19 16:37:00,,0821.1,5.01,0.00,28.9,28.1,00.0,38.1,30.7,15.5,0000.0,0019.22,0004.70,0002.94
2021-10-19 16:38:00,,0821.1,4.99,0.00,28.9,28.1,00.0,38.0,30.7,15.4,0000.0,0019.53,0004.70,0002.93
2021-10-19 16:39:00,,0821.1,5.00,0.00,28.9,28.1,00.0,38.0,30.7,15.4,0000.0,0020.87,0004.68,0002.91
2021-10-19 16:40:00,,0821.1,4.99,0.00,28.9,28.1,00.0,38.0,30.7,15.2,0000.0,0019.81,0004.69,0002.88
2021-10-19 16:41:00,,0821.0,4.99,0.00,28.9,28.1,00.0,38.0,30.7,15.0,0000.0,0019.42,0004.68,0002.85
2021-10-19 16:42:00,,0821.0,5.01,0.00,28.9,28.1,00.0,38.0,30.7,14.9,0000.0,0017.40,0004.61,0002.81
2021-10-19 16:43:00,,0821.0,5.00,0.00,28.9,28.1,00.0,38.0,30.7,15.0,0000.0,0015.90,0004.50,0002.78
2021-10-19 16:44:00,,0821.1,5.00,0.00,28.9,28.0,00.0,38.0,30.6,15.0,0000.0,0015.86,0004.53,0002.76
2021-10-19 16:45:00,,0821.1,4.99,0.00,28.9,28.0,00.0,38.0,30.6,14.9,0000.0,0017.05,0004.44,0002.73
2021-10-19 16:46:00,,0821.0,4.99,0.00,28.9,28.0,00.0,38.0,30.6,14.9,0000.0,0017.27,0004.34,0002.69
2021-10-19 16:47:00,,0821.0,5.02,0.00,28.9,28.0,00.0,38.0,30.6,14.9,0000.0,0018.31,0004.29,0002.65
2021-10-19 16:48:00,,0821.0,4.99,0.00,28.9,28.1,00.0,38.0,30.7,15.0,0000.0,0018.74,0004.24,0002.61
2021-10-19 16:49:00,,0821.0,5.00,0.00,28.9,28.1,00.0,38.0,30.7,15.0,0000.0,0018.46,0004.21,0002.59
2021-10-19 16:50:00,,0821.0,5.00,0.00,28.9,28.1,00.0,38.0,30.7,15.0,0000.0,0017.88,0004.18,0002.56
2021-10-19 16:51:00,,0821.0,5.00,0.00,28.9,28.1,00.0,38.0,30.7,15.0,0000.0,0018.99,0004.13,0002.56
2021-10-19 16:52:00,,0821.0,4.99,0.00,28.9,28.1,00.0,38.0,30.7,15.0,0000.0,0018.71,0004.10,0002.56
2021-10-19 16:53:00,,0821.1,5.00,0.00,28.9,28.1,00.0,38.0,30.7,15.0,0000.0,0020.13,0004.18,0002.57
2021-10-19 16:54:00,,0821.1,5.01,0.00,28.9,28.1,00.0,38.0,30.7,15.0,0000.0,0022.11,0004.22,0002.57
2021-10-19 16:55:00,,0821.1,5.01,0.00,28.9,28.1,00.0,38.0,30.7,15.0,0000.0,0025.50,0004.19,0002.56
2021-10-19 16:56:00,,0821.2,5.00,0.00,28.9,28.1,00.0,38.0,30.7,15.0,0000.0,0025.23,0004.23,0002.56
2021-10-19 16:57:00,,0821.1,4.99,0.00,29.0,28.1,00.0,38.0,30.7,15.0,0000.0,0024.86,0004.26,0002.58
2021-10-19 16:58:00,,0821.2,4.99,0.00,29.0,28.1,00.0,38.0,30.7,15.0,0000.0,0024.08,0004.29,0002.58
2021-10-19 16:59:00,,0821.2,5.00,0.00,29.0,28.1,00.0,38.0,30.8,15.1,0000.0,0023.41,0004.30,0002.58
